Wind_Speed
22 23 23 23 24 24 23 22 23 24 23 23 22 20 20 22 24 24 25 26 27 27 26 27 29 32 34 35 36 35 34 33 30 30 31 32 32 34 35 35 35 35 33 32 33 35 36 37 38 40 43 45 46 49 53 57 60 60 62 65 68 71 73 73 73 74 76 79 81 82 82 81 80 79 78 78 77 76 73 71 67 62 58 56 53 50
25 24 24 25 26 25 23 23 23 24 23 23 22 22 22 23 25 25 24 26 28 28 27 27 28 31 34 34 35 35 35 34 31 30 31 32 32 33 33 33 33 33 32 31 32 33 34 35 36 38 41 42 43 45 49 52 54 55 57 60 64 68 70 71 71 71 73 74 75 76 77 77 76 75 75 75 74 74 73 71 68 64 60 58 56 53
27 27 27 28 27 25 24 24 25 26 25 24 24 25 25 25 26 25 24 25 28 29 28 27 26 29 31 32 32 32 33 33 29 28 29 30 31 30 29 29 30 31 29 28 30 31 32 33 35 38 40 41 41 43 47 49 50 51 52 56 60 63 65 67 68 69 70 71 72 72 73 73 71 70 70 70 70 69 69 68 66 63 60 58 57 54
27 28 29 30 29 28 26 27 27 27 26 25 26 27 27 27 27 25 24 25 27 28 28 27 25 26 27 27 27 28 29 29 28 27 27 27 27 25 24 25 27 27 27 26 28 30 32 33 35 37 39 40 39 41 44 46 47 48 50 54 58 60 61 62 64 65 66 68 69 70 70 70 69 67 66 65 65 65 64 64 63 61 59 58 57 55
26 28 30 30 30 30 29 30 31 29 26 25 26 29 28 27 27 25 24 26 27 27 26 25 24 23 23 22 21 23 24 26 27 25 24 24 22 20 21 23 25 26 26 26 27 29 32 33 34 36 38 38 38 40 42 43 44 44 46 51 55 57 58 59 61 62 63 65 66 67 68 68 67 65 63 62 61 61 60 61 60 59 58 57 56 54
22 25 28 29 30 30 30 31 32 30 28 28 29 30 29 27 26 25 25 26 27 26 24 23 21 20 19 17 17 19 21 24 25 22 22 22 20 19 21 23 24 26 26 26 28 30 31 31 32 34 35 35 36 39 40 40 41 42 43 47 50 53 55 56 58 59 60 62 63 64 65 65 65 64 63 61 60 58 58 58 58 57 56 56 55 54
16 20 22 25 27 29 29 30 31 29 28 30 30 28 27 27 26 26 27 27 27 25 22 21 20 18 17 15 16 18 20 23 22 20 20 21 20 21 22 24 25 25 25 26 29 30 29 29 31 32 33 34 35 38 38 38 38 39 41 43 46 49 50 51 53 54 56 58 60 61 62 63 63 63 62 61 59 58 57 57 57 57 56 55 54 54
12 15 17 20 22 24 26 28 29 28 27 29 30 26 26 27 27 27 28 28 27 25 21 20 20 17 16 15 16 18 21 23 21 20 21 21 21 22 23 24 25 25 25 26 28 29 27 28 31 33 33 34 35 36 36 36 35 36 38 40 43 45 46 46 47 48 50 52 54 57 58 60 61 61 61 61 59 58 57 57 57 56 56 55 54 54
13 13 15 17 19 20 22 25 27 27 28 30 30 28 28 29 28 29 29 28 27 25 22 21 20 17 15 15 15 18 22 24 23 21 22 22 22 22 23 24 25 26 26 27 28 27 26 28 31 32 33 34 35 35 35 34 34 34 35 37 39 41 41 41 42 43 44 46 48 51 53 55 57 58 60 60 59 58 57 56 56 57 56 55 54 55
19 15 14 15 17 18 20 23 26 26 27 29 30 30 30 30 29 30 29 28 27 25 24 22 19 17 16 16 15 17 19 21 23 23 24 24 23 23 23 24 25 26 27 27 28 27 27 29 30 31 32 33 34 33 33 33 33 33 32 33 35 36 36 37 38 38 40 41 43 45 48 50 53 55 57 59 59 58 57 56 57 58 57 56 55 56
33 23 17 14 14 17 19 21 24 27 28 29 29 29 30 30 30 30 30 28 27 27 26 23 19 17 16 17 17 17 17 17 20 22 24 25 25 24 24 24 25 26 27 27 27 27 27 29 30 30 31 32 32 31 31 31 31 31 29 28 29 30 31 33 34 34 35 37 38 40 43 46 48 51 53 56 57 57 56 57 58 59 59 57 57 58
48 38 27 19 15 14 15 17 20 24 27 29 30 31 31 33 32 31 30 30 29 29 28 24 21 18 17 17 17 17 17 17 18 20 22 24 25 26 26 26 26 26 27 27 27 27 27 28 29 30 30 30 30 31 31 31 30 28 25 23 23 25 27 28 28 29 31 33 35 37 40 42 45 48 50 53 55 55 56 57 59 60 60 59 58 59
56 50 42 32 24 20 16 14 16 19 22 26 30 32 33 34 33 32 32 31 31 31 29 26 23 20 18 17 17 18 17 17 18 19 20 22 24 26 27 27 26 27 27 27 27 27 27 27 28 29 29 29 28 29 30 29 28 26 22 20 19 20 21 22 23 25 26 29 31 33 36 39 42 44 47 49 51 53 55 58 60 60 61 60 59 61
61 58 53 46 38 30 23 18 16 17 18 20 25 31 35 36 35 34 34 34 32 32 29 26 24 22 19 18 19 19 18 17 17 18 19 21 23 25 26 26 26 27 27 27 27 27 27 27 27 28 29 29 28 28 28 27 26 24 21 19 17 17 17 18 20 22 24 25 27 30 33 36 39 42 44 46 48 51 54 57 60 61 62 61 61 62
64 62 59 55 49 42 33 26 21 19 17 17 19 25 31 35 36 36 36 36 34 33 30 26 25 22 19 19 20 21 19 18 18 19 19 21 22 24 25 25 26 27 28 27 26 26 26 26 26 27 28 29 29 28 28 27 25 24 22 20 19 18 17 17 18 20 22 24 25 27 30 33 36 39 42 43 45 48 53 57 60 62 63 63 62 63
65 64 62 60 57 51 44 36 29 24 20 18 17 19 24 30 34 36 38 37 36 34 31 27 25 23 21 21 22 21 20 19 19 19 20 21 22 24 24 24 25 27 27 27 26 25 26 26 26 26 27 28 29 29 28 27 26 24 22 21 20 19 18 17 18 19 20 22 24 26 28 31 34 37 39 41 43 46 51 56 59 62 63 64 64 65
65 65 64 63 61 58 53 46 38 31 26 23 20 17 18 22 27 33 37 38 37 34 31 28 25 24 23 23 23 21 19 20 20 18 19 20 21 22 23 23 25 26 27 27 26 25 25 26 27 27 27 28 29 29 28 27 27 25 24 23 22 21 20 19 19 20 19 20 23 25 26 29 32 35 37 40 42 44 49 55 59 62 64 65 66 66
65 65 65 64 63 61 58 54 48 40 33 28 25 21 18 18 20 25 31 36 37 35 32 29 27 26 25 25 24 22 19 20 21 19 18 19 20 21 22 21 23 25 27 27 27 26 25 26 27 27 27 28 28 28 28 28 27 26 25 25 24 24 24 22 22 22 21 21 22 23 25 27 30 33 35 38 41 43 48 53 58 62 64 67 67 68
65 65 65 64 64 63 62 59 54 49 41 34 29 25 21 19 18 19 24 29 33 33 32 31 29 27 27 26 24 23 21 20 21 20 19 18 19 20 20 20 21 24 26 27 27 27 26 26 26 26 27 27 28 28 29 29 29 28 27 26 26 27 26 26 25 24 23 23 23 23 24 26 29 32 34 37 39 42 46 52 57 61 65 68 69 70
65 65 65 65 64 64 63 61 58 54 49 41 33 28 25 21 18 17 19 22 26 28 29 30 30 28 27 27 24 23 23 21 20 21 20 19 20 20 20 19 20 22 25 27 27 27 26 26 26 26 26 27 27 28 29 30 30 30 30 29 30 30 30 29 27 27 26 25 25 25 24 25 28 31 33 35 38 41 44 50 56 61 65 69 71 72
67 66 65 65 65 64 63 62 60 57 54 48 39 32 28 25 21 18 18 19 20 22 24 27 29 29 28 27 25 23 23 22 21 20 20 19 20 21 20 19 19 21 23 25 27 27 27 27 27 26 26 27 27 28 29 30 30 31 31 32 32 33 34 33 31 29 29 28 27 27 26 26 27 30 32 35 37 40 42 48 54 60 65 69 72 74
70 68 67 66 65 64 64 63 62 59 57 53 48 40 32 28 24 21 19 18 18 19 20 21 24 27 29 28 26 24 23 22 22 21 20 19 19 20 20 20 20 20 21 23 25 27 27 28 28 28 28 28 28 29 30 31 31 32 32 33 34 36 36 37 35 32 32 31 29 29 29 28 28 29 32 35 37 39 41 45 52 58 64 69 73 75
73 72 70 68 66 65 64 63 62 61 59 56 53 48 40 32 27 24 21 18 17 18 18 18 20 24 27 27 27 25 23 23 23 20 20 20 19 19 20 20 21 20 20 20 22 24 25 26 28 28 28 29 29 29 31 32 33 33 34 35 36 37 38 39 38 35 34 34 32 31 31 31 29 29 31 34 37 39 40 43 49 56 62 68 73 76
75 74 73 72 69 66 64 63 62 61 60 58 55 52 47 40 32 27 24 20 18 16 16 17 19 23 25 25 25 25 24 25 24 20 19 20 20 19 19 20 20 20 20 19 19 20 22 23 25 26 27 28 29 29 31 33 34 34 35 36 37 37 37 38 39 37 36 36 34 33 32 32 31 31 31 34 37 39 41 42 47 53 60 67 72 77
75 76 76 75 73 69 66 64 63 62 61 59 58 55 51 46 40 33 28 23 20 17 14 15 18 21 24 24 24 25 25 26 24 19 17 19 21 20 20 20 20 21 20 20 19 19 19 21 22 24 26 27 28 28 29 32 33 35 36 36 37 37 37 37 38 37 38 37 36 34 34 33 33 33 33 34 36 39 41 42 45 51 58 65 71 76
74 76 77 77 76 73 69 66 64 62 61 60 59 57 54 51 46 41 34 27 22 18 15 14 16 19 22 23 24 25 27 27 25 21 18 19 20 21 21 21 21 21 21 21 21 20 20 20 21 23 25 26 27 27 28 30 33 34 35 35 36 36 36 36 36 36 37 37 36 35 34 34 34 34 35 34 35 38 41 42 44 48 55 63 70 76
73 74 76 77 78 76 73 69 65 63 62 60 59 58 57 54 51 46 41 34 27 21 17 14 14 16 19 22 23 25 26 26 25 23 21 20 20 20 21 21 21 22 23 22 23 23 23 22 22 23 25 26 26 26 28 30 32 34 34 34 33 33 33 33 34 35 36 36 36 35 34 34 34 34 35 35 35 36 40 42 44 46 52 59 67 74
71 73 75 76 78 78 77 73 69 66 64 62 60 59 58 56 53 50 47 41 33 26 20 16 15 15 16 19 22 24 25 25 25 25 24 23 22 21 21 21 21 22 23 23 23 25 25 24 23 23 24 24 24 26 28 30 32 33 33 32 30 30 30 31 31 32 33 33 33 33 32 33 34 35 35 36 35 36 39 42 44 46 50 56 64 72
70 72 74 76 77 79 79 77 74 70 66 64 62 60 58 57 55 52 49 45 40 33 25 19 17 16 15 17 20 23 25 25 26 25 25 24 23 23 23 22 22 23 23 23 24 26 27 26 25 23 23 24 24 25 28 31 33 33 32 30 29 28 28 29 28 28 29 29 29 30 30 31 33 34 34 35 36 36 37 40 44 46 48 53 60 68
69 71 73 75 77 79 80 80 78 74 70 66 63 61 59 58 56 54 51 48 44 38 31 24 19 17 17 17 19 22 24 25 26 26 26 26 24 24 24 23 23 23 24 24 25 27 28 28 27 25 24 24 24 25 28 31 33 33 31 30 29 27 27 27 26 25 25 26 26 26 27 29 31 33 34 35 36 36 36 38 42 46 48 51 56 64
68 70 72 74 76 78 80 81 80 79 75 70 66 63 61 59 58 56 54 51 48 44 38 31 24 19 17 17 19 22 23 25 27 28 28 27 26 25 24 24 23 23 23 24 25 26 28 29 28 26 24 24 25 26 28 31 34 33 31 29 29 28 27 25 24 22 22 22 22 22 23 26 29 31 32 33 34 35 35 36 40 44 48 50 54 60
67 69 71 73 75 77 79 81 82 82 80 77 72 67 64 61 59 58 56 53 50 47 43 37 31 24 19 17 19 22 24 26 27 29 30 29 28 27 26 24 23 23 23 24 24 26 27 29 29 28 25 25 25 26 28 31 33 33 31 29 29 29 28 25 22 20 20 19 19 19 21 23 26 28 30 31 32 33 34 35 37 41 46 49 52 56
66 67 69 71 73 76 78 80 82 83 83 82 78 72 67 63 61 59 58 55 53 50 47 42 36 30 24 19 18 20 24 27 28 29 30 30 29 29 27 26 25 23 23 23 23 24 27 29 29 28 26 24 24 25 28 30 32 32 31 29 28 29 29 26 21 19 18 17 16 16 18 20 23 26 27 29 30 31 32 33 35 38 43 48 50 53
65 66 68 70 72 74 77 79 81 82 83 83 82 78 72 67 63 60 59 58 55 52 49 46 41 34 29 24 20 19 22 26 29 30 29 29 30 31 29 27 26 25 24 23 23 23 25 27 28 28 26 24 24 24 26 29 30 30 30 29 28 29 29 26 21 18 16 15 14 14 15 18 21 24 26 27 28 30 31 32 34 36 40 45 49 52
64 65 67 69 70 73 75 78 80 81 82 83 83 82 77 71 66 62 60 59 57 53 50 48 44 38 31 27 23 21 21 23 26 29 29 29 31 31 30 29 27 26 25 24 23 23 24 26 27 27 26 24 23 24 25 27 29 29 29 29 28 28 28 25 20 17 15 14 13 13 14 16 19 22 25 26 27 29 31 32 33 35 37 42 47 51
64 64 65 67 69 71 74 76 79 80 82 83 84 83 80 75 69 64 61 60 59 56 52 49 46 41 34 28 24 22 22 22 23 25 28 30 31 31 30 29 28 26 25 24 23 23 23 25 26 26 25 23 23 23 24 26 28 28 27 28 28 28 28 25 20 16 14 13 12 12 13 15 18 21 23 26 27 29 31 32 32 34 36 39 43 48
63 64 65 67 69 71 73 76 78 80 81 82 84 84 83 79 73 67 62 60 59 58 56 52 49 45 39 32 26 22 22 22 22 22 24 29 31 31 30 29 28 27 26 25 24 22 22 23 24 25 25 23 22 22 23 25 27 26 25 26 27 27 27 25 21 16 14 13 12 12 13 14 17 19 22 25 27 29 30 31 32 32 34 37 40 45
63 64 65 67 69 71 73 75 77 79 80 81 83 85 85 82 77 70 65 61 59 58 57 55 51 48 44 38 31 25 22 22 22 21 21 25 29 31 30 29 28 27 26 25 24 23 23 23 23 24 25 23 22 22 21 23 25 25 24 24 25 25 25 25 23 19 14 12 11 12 13 14 16 18 20 23 25 27 29 30 31 31 33 35 38 42
64 65 66 67 68 71 73 75 77 78 79 81 83 85 86 85 81 74 68 63 60 59 58 57 53 49 46 42 36 29 24 22 22 22 20 21 26 30 30 30 29 27 26 25 24 23 23 23 23 24 24 22 21 20 20 21 24 24 22 22 23 23 23 23 22 20 17 14 11 11 11 13 14 16 18 21 23 25 27 29 30 31 32 33 36 39
65 66 67 68 69 70 73 75 77 78 79 80 82 84 85 86 84 79 71 66 62 60 59 58 56 52 48 44 40 34 28 23 22 23 21 20 23 28 30 30 29 27 26 25 24 23 22 22 22 22 23 22 20 19 19 20 22 23 21 20 20 21 21 21 21 20 18 16 13 11 10 10 12 14 16 18 20 22 24 26 28 29 31 32 33 36
65 66 67 68 69 70 73 75 77 79 80 81 83 84 85 87 86 82 76 69 64 61 59 59 57 54 50 46 42 37 31 26 23 22 22 21 21 25 29 29 29 28 26 24 24 22 22 22 21 21 22 21 19 18 17 18 20 21 21 19 19 19 20 20 20 20 19 18 16 14 11 10 10 11 12 15 17 19 21 23 25 26 28 29 30 33
65 66 67 68 69 71 72 75 77 79 80 81 83 85 86 87 88 86 81 74 68 63 60 59 58 56 52 48 45 39 34 29 24 22 22 23 22 23 26 29 29 28 26 24 24 22 21 21 21 20 20 20 18 17 16 17 18 20 20 19 17 17 18 19 19 20 20 19 18 16 14 12 10 10 10 11 13 15 17 20 22 23 25 26 28 30
65 67 68 68 70 72 73 75 76 78 80 82 83 85 86 87 89 89 85 79 73 67 62 59 59 57 53 49 46 41 36 30 26 23 22 23 23 22 24 27 29 29 27 25 24 23 21 21 21 20 20 19 18 16 15 15 16 18 19 18 16 15 16 17 17 18 18 19 18 18 16 14 12 10 9 8 9 11 13 15 18 20 22 24 25 27
65 67 68 69 71 73 74 76 77 78 80 82 83 85 87 88 89 90 88 83 76 71 65 61 59 58 55 51 47 43 38 32 28 24 22 22 22 22 23 25 28 29 27 25 24 24 22 21 21 20 19 19 17 16 15 14 14 16 17 17 16 14 14 14 15 15 16 17 18 18 17 17 15 12 9 8 8 8 9 11 13 15 18 21 23 24
65 67 68 69 71 74 75 76 78 79 81 82 84 86 88 89 89 91 91 88 81 74 68 63 59 58 57 53 49 44 39 34 29 26 23 22 20 20 21 23 27 29 28 25 25 25 23 21 21 20 19 19 17 16 14 13 13 14 15 16 15 14 13 12 12 13 13 14 15 16 17 17 17 15 12 9 8 7 7 8 9 11 14 17 20 22
66 68 68 69 71 74 75 76 79 81 82 83 84 86 88 89 91 92 93 92 86 78 71 66 61 59 57 55 51 46 41 36 30 26 24 22 21 19 19 21 24 28 29 26 25 26 25 22 21 20 19 19 18 16 14 13 12 12 13 14 14 13 12 11 10 10 11 11 12 13 14 15 16 16 15 12 9 7 6 7 8 9 11 13 16 18
66 67 68 69 71 73 75 76 78 81 82 83 85 86 87 89 91 92 94 94 91 84 76 69 64 60 58 56 52 48 43 37 32 27 24 22 22 21 20 19 21 26 30 28 26 26 26 24 22 20 19 19 18 16 14 13 12 11 11 12 13 12 10 9 9 8 9 9 10 11 12 13 14 15 15 15 13 10 7 6 6 8 9 10 12 15
67 68 68 70 72 74 75 76 78 80 82 84 85 86 87 89 90 92 93 94 92 87 79 72 66 61 59 57 54 50 45 39 33 28 24 22 22 22 22 20 20 23 28 30 28 26 27 26 23 21 19 19 18 17 15 13 12 11 10 11 11 10 9 7 7 6 7 8 8 9 10 10 11 12 13 14 14 13 11 8 5 6 7 8 10 11
68 69 69 70 73 75 76 78 79 80 82 84 85 86 88 89 90 91 92 93 92 88 81 74 68 62 60 58 55 51 47 42 37 31 26 23 23 23 23 22 21 22 26 31 30 28 28 27 25 22 20 19 18 18 16 14 12 11 10 10 9 9 7 6 5 5 5 6 7 8 8 9 9 10 10 11 11 12 12 11 9 6 5 6 8 9
69 70 70 71 73 76 78 79 80 82 83 84 86 87 88 89 90 92 93 93 93 89 82 75 69 63 60 58 56 52 48 43 38 33 28 25 23 24 23 23 22 21 24 29 32 31 29 28 27 24 22 20 19 18 17 15 13 11 10 9 8 7 6 5 3 3 3 5 6 7 7 8 8 8 9 9 9 10 10 10 10 10 8 6 6 7
70 71 72 73 74 77 79 80 81 83 84 85 87 88 89 90 92 93 94 95 94 90 84 76 70 64 60 58 57 54 49 44 39 33 29 26 24 24 24 24 23 22 22 27 32 33 31 30 28 27 24 22 21 19 17 16 14 12 11 10 9 7 7 5 3 1 2 3 4 6 7 7 8 8 8 8 8 8 8 8 9 9 9 8 7 6
Wind_Direction
241 243 244 245 246 247 246 247 249 251 252 253 253 251 250 253 258 264 272 278 280 278 277 280 287 290 289 287 287 286 283 278 274 272 269 267 266 265 265 265 267 267 266 263 259 256 254 252 252 255 256 254 255 256 257 256 255 255 257 258 257 257 256 254 253 253 253 252 251 251 252 252 253 253 253 252 252 251 250 250 251 250 246 244 243 242
246 246 247 247 247 248 249 249 251 253 253 253 253 251 249 251 258 265 272 275 276 278 281 285 289 289 288 287 285 283 280 277 275 271 268 266 265 264 266 267 266 267 266 265 264 261 256 252 253 257 260 259 258 259 260 259 257 256 257 258 258 258 257 256 255 254 254 253 252 252 252 252 252 252 252 252 251 250 249 249 249 248 245 242 240 238
248 249 250 251 251 251 251 251 252 253 253 252 253 252 251 253 258 265 272 273 275 280 285 288 289 290 289 286 283 280 278 277 275 269 266 264 264 264 265 265 264 265 266 266 265 262 256 253 255 259 261 261 261 262 262 261 260 259 258 259 259 258 258 257 256 255 255 255 253 253 252 252 252 251 250 249 248 248 247 247 246 245 243 240 237 235
251 252 252 253 255 255 254 254 253 252 253 254 256 255 253 254 258 264 269 271 274 280 288 292 293 295 292 287 282 279 278 279 276 271 267 266 266 265 263 262 263 264 265 264 263 261 258 257 259 262 263 263 263 264 264 264 263 261 260 260 260 259 259 258 257 255 255 254 253 253 252 252 251 249 248 246 245 244 244 244 243 242 239 236 233 231
254 253 254 254 256 257 257 257 256 256 257 257 256 256 255 256 260 263 265 268 271 278 288 293 298 302 297 288 282 277 277 277 276 275 274 272 270 267 263 262 263 264 265 265 264 263 262 261 263 265 266 267 268 267 266 266 265 263 261 261 260 260 259 258 257 256 255 254 253 252 251 250 249 248 246 244 242 241 240 240 240 238 236 232 229 227
259 257 256 254 255 255 256 258 259 258 258 257 255 257 260 260 261 262 264 268 272 278 286 292 299 307 301 287 276 271 272 273 276 278 278 277 275 270 266 265 264 263 265 268 269 267 265 266 269 271 273 274 275 274 271 270 269 266 264 262 261 260 259 258 256 255 254 253 252 251 250 249 248 246 244 242 240 238 237 236 235 235 232 229 225 223
271 267 263 258 255 254 254 256 257 258 258 258 257 258 259 258 258 262 265 269 273 277 286 294 299 308 309 292 274 271 273 274 278 280 279 278 276 271 268 266 263 263 265 268 270 270 272 276 279 280 281 283 283 282 280 278 276 273 268 265 262 260 259 257 256 254 252 251 250 249 248 247 246 244 242 240 239 236 234 233 232 231 228 225 222 219
303 285 275 268 263 259 257 256 256 256 257 258 258 257 256 257 260 263 265 267 271 277 286 293 297 307 317 305 283 275 276 277 281 281 278 276 274 271 269 268 267 267 268 271 272 275 281 286 286 287 288 289 290 289 287 284 280 277 273 269 265 262 260 257 255 253 251 250 249 248 247 246 245 243 241 238 236 234 232 230 229 228 225 222 219 217
339 313 296 284 277 269 262 261 259 256 255 257 258 258 258 260 261 261 262 264 269 276 281 286 293 303 314 311 294 281 278 279 280 279 277 276 275 274 273 273 274 273 273 274 276 280 285 288 288 290 292 293 293 293 292 290 287 281 277 273 270 266 263 260 257 254 251 249 249 248 246 245 243 241 239 237 234 231 229 227 226 225 224 220 217 215
13 349 325 308 294 282 272 265 262 259 256 257 259 259 259 258 257 257 259 262 266 272 275 279 289 301 306 308 305 298 292 283 278 276 275 275 276 275 275 276 276 276 275 276 278 281 285 286 287 289 291 293 295 298 300 299 295 289 283 278 275 271 266 262 259 256 253 250 249 248 246 244 242 240 238 236 233 230 227 224 223 223 222 219 216 214
33 24 3 339 316 298 287 276 267 262 259 257 257 257 257 256 255 255 258 260 263 266 270 276 285 295 298 300 306 311 308 294 284 279 275 275 277 278 277 277 276 276 276 276 278 281 283 284 286 288 290 294 299 304 306 304 301 296 290 284 279 275 269 263 259 257 254 251 249 247 246 244 242 239 237 235 232 228 225 222 220 221 221 218 214 212
37 35 28 12 352 327 309 296 283 272 264 259 257 256 256 255 255 255 256 258 259 262 267 274 281 286 290 296 303 308 309 310 306 296 285 280 278 278 277 277 277 277 278 278 279 280 281 283 286 288 291 297 304 309 310 310 308 304 298 291 284 278 271 266 262 258 255 252 249 247 245 243 241 238 236 233 231 227 224 220 218 219 219 217 213 211
36 36 34 28 17 3 347 324 304 291 278 267 260 258 257 256 256 255 255 255 256 260 265 271 276 281 287 291 295 298 303 314 318 309 295 284 277 275 274 274 276 278 279 280 280 280 281 284 286 290 294 298 304 309 312 313 312 310 306 299 292 286 280 275 270 265 259 255 251 248 245 242 240 237 234 232 229 226 223 219 217 217 217 216 212 209
36 35 34 33 28 20 11 356 333 315 300 282 267 260 257 257 256 256 255 255 255 257 262 267 272 278 285 287 287 290 297 308 316 311 301 292 284 277 274 274 276 277 278 279 280 281 283 286 289 293 296 299 303 306 309 312 314 315 313 310 306 302 296 288 278 272 266 262 256 251 247 243 239 236 233 230 227 224 222 219 216 215 215 214 212 208
35 34 33 32 30 27 22 13 0 345 328 305 281 266 259 257 255 255 256 256 255 256 258 262 267 272 277 279 281 288 297 306 312 313 308 302 292 284 278 276 276 277 278 279 281 284 286 288 291 295 298 300 301 303 306 311 315 318 320 320 319 316 311 303 291 279 272 267 262 256 251 246 241 237 233 229 225 223 221 218 215 213 213 213 211 208
32 33 33 32 30 29 26 21 14 6 355 337 313 287 270 261 257 255 255 256 255 256 257 257 260 265 268 270 275 285 295 300 305 310 312 307 298 290 284 280 278 279 281 283 284 286 288 289 291 293 295 296 298 300 304 308 312 316 320 322 321 319 315 309 301 292 281 271 265 259 253 249 244 239 234 230 225 221 220 217 214 212 211 212 211 207
31 31 31 31 30 29 28 26 22 16 9 1 347 324 297 277 264 257 255 256 256 255 254 254 255 258 262 265 271 279 287 291 294 303 312 312 303 294 289 282 278 279 282 283 284 286 288 289 290 291 293 294 297 300 303 305 308 311 315 317 317 316 313 310 305 299 291 280 270 262 255 250 247 242 237 232 226 221 219 217 213 211 210 210 210 207
30 30 29 29 30 29 28 27 25 21 16 10 2 350 329 306 283 266 258 257 257 255 253 252 252 252 255 261 267 273 278 283 288 297 307 312 305 298 294 286 278 277 279 281 283 285 286 287 289 292 294 296 298 299 301 302 304 306 309 311 312 311 310 309 306 300 295 289 279 268 259 252 248 245 239 234 228 222 218 216 213 211 209 209 209 208
28 28 28 28 28 28 28 27 26 24 21 15 7 0 351 335 313 289 270 262 260 258 254 251 250 249 251 256 261 267 270 274 283 291 300 307 306 303 304 297 284 278 277 279 281 283 286 288 290 293 295 296 297 298 298 299 300 301 303 305 306 306 305 304 303 299 295 290 284 276 265 255 249 245 241 237 231 224 219 216 213 210 208 208 208 208
27 27 27 26 26 27 27 26 25 24 23 20 12 5 0 353 337 315 292 276 268 264 257 252 250 249 250 252 256 260 265 269 276 285 295 304 307 310 314 308 294 284 279 279 281 283 285 287 288 290 292 293 294 294 295 295 297 299 300 302 302 301 300 299 298 296 292 287 283 278 271 261 252 246 242 239 234 227 220 217 214 211 208 207 207 208
26 26 26 26 25 25 25 25 25 24 23 22 18 12 6 1 352 334 315 300 286 274 262 252 248 248 249 250 251 253 259 266 271 279 289 299 306 313 317 314 304 294 287 284 282 282 281 281 282 285 287 288 289 290 291 292 294 296 298 299 299 299 298 296 295 293 289 285 281 277 273 266 257 249 243 239 236 230 223 218 215 212 209 207 207 208
25 25 25 25 24 23 23 23 23 23 22 21 20 17 11 6 360 348 332 318 303 289 277 262 251 247 246 246 247 246 250 258 266 272 280 290 301 310 316 316 311 305 297 289 285 285 284 284 283 283 283 284 286 287 288 289 291 293 294 295 295 295 295 294 293 291 288 284 279 275 271 266 260 252 245 240 236 232 226 219 216 213 210 207 207 207
25 24 24 23 23 22 21 21 21 22 22 21 20 19 16 10 4 357 348 334 316 300 290 278 261 251 246 245 245 245 246 252 258 264 272 282 292 302 311 315 316 315 309 299 292 289 287 286 285 284 284 285 286 288 289 289 289 290 290 291 291 292 292 292 291 289 286 283 277 272 267 264 260 254 248 242 237 233 228 221 217 215 211 208 207 207
24 24 23 23 22 21 20 20 20 20 20 20 20 20 18 14 8 2 357 348 334 315 298 284 270 258 252 248 247 248 248 251 254 258 269 280 286 294 304 311 317 320 318 310 301 295 290 288 288 289 289 289 288 288 289 289 289 289 289 289 289 290 290 289 288 287 284 280 275 270 265 261 258 254 248 243 237 234 229 223 218 215 213 210 208 207
23 23 23 22 21 20 19 18 18 18 18 18 18 19 19 17 12 7 1 356 349 333 309 287 272 263 257 252 249 250 251 253 254 254 262 275 283 292 300 308 315 321 322 321 317 311 302 297 294 294 292 291 289 288 289 289 290 291 292 292 293 292 290 288 287 284 281 277 273 268 263 258 255 252 248 243 238 234 230 226 221 217 214 211 209 208
22 21 21 21 20 20 19 17 16 16 16 16 16 16 17 17 16 11 5 0 356 347 327 297 276 266 261 255 248 246 249 253 257 255 254 262 275 286 295 303 311 317 321 325 327 324 317 309 304 300 298 296 294 293 293 293 294 296 296 296 296 294 291 289 285 281 278 275 272 267 262 257 252 249 247 244 239 235 231 227 223 219 216 213 210 208
20 20 20 20 20 19 18 17 15 14 14 14 15 14 15 15 16 14 10 4 359 354 342 317 292 274 264 257 249 245 246 251 257 260 260 262 269 278 287 297 305 312 317 324 329 329 326 321 315 308 303 300 300 300 300 300 301 302 301 301 299 296 293 290 285 281 277 274 270 266 260 255 250 247 245 243 240 235 232 228 224 221 218 215 212 210
17 18 17 18 18 18 18 17 16 14 12 12 12 13 13 13 14 14 13 9 2 357 351 335 314 291 269 260 254 249 247 249 253 258 262 265 269 274 282 291 299 305 312 319 327 329 329 328 322 312 305 304 306 307 308 308 308 308 308 307 305 302 299 294 289 284 279 274 269 264 258 252 248 244 242 241 240 236 232 229 225 222 219 217 214 212
14 15 15 15 16 16 17 17 16 14 12 10 10 10 11 11 12 13 12 11 6 360 353 344 328 309 286 267 257 253 251 250 251 255 259 263 268 273 280 287 293 300 308 316 323 327 329 331 326 316 311 311 312 312 313 314 314 315 315 315 312 310 307 302 296 288 282 276 270 263 256 250 245 242 240 238 238 236 233 229 227 223 220 218 216 214
11 12 12 12 13 14 15 15 15 15 13 11 9 8 8 9 10 11 11 11 9 4 356 347 337 321 303 283 264 255 253 252 252 253 256 259 264 269 276 283 291 298 306 314 320 324 328 331 328 322 316 315 314 316 317 319 319 319 320 321 320 318 316 310 302 294 286 279 271 263 254 247 243 240 238 236 235 236 234 231 228 225 222 219 218 216
8 9 9 10 10 10 12 12 13 14 13 12 9 7 6 6 7 8 9 9 8 6 1 353 343 329 313 295 277 263 256 253 254 255 256 257 260 265 271 277 285 293 300 308 315 320 325 329 329 325 320 317 317 320 321 322 323 323 324 327 327 326 324 318 308 299 291 282 272 262 251 243 239 238 236 235 234 234 234 232 229 227 224 221 219 217
6 6 6 7 7 8 9 10 11 12 12 12 10 8 5 4 4 5 6 7 6 6 4 359 349 338 323 304 287 274 263 256 255 257 259 260 261 263 268 273 279 286 293 301 310 317 322 327 329 327 322 319 321 322 323 325 326 326 328 332 333 332 330 325 315 304 296 285 272 260 248 240 237 236 235 234 233 234 235 234 231 229 226 223 221 219
4 4 4 4 5 5 6 7 8 9 10 10 10 8 5 3 2 2 3 4 5 4 3 1 355 345 333 316 298 283 272 262 257 257 260 264 266 266 267 271 274 279 286 294 304 313 320 325 328 327 323 320 321 322 324 327 329 329 331 335 338 337 334 329 320 310 300 289 275 260 247 238 235 235 234 234 233 234 235 235 233 231 228 226 223 220
2 2 1 2 2 3 4 5 6 7 7 8 8 8 6 3 2 1 0 1 2 2 1 360 357 351 341 327 311 293 279 268 261 258 259 263 267 268 270 272 275 279 285 292 301 310 317 322 326 326 323 320 320 321 324 329 332 332 333 337 341 341 338 331 323 314 304 293 279 263 249 239 235 234 234 234 234 234 235 235 234 232 230 228 225 222
360 0 360 359 360 1 1 2 3 5 5 6 7 7 5 4 1 360 359 358 359 0 360 359 357 353 346 334 318 303 290 279 268 262 258 258 262 266 271 274 277 281 287 293 300 307 313 318 324 325 323 319 318 320 325 331 335 335 336 339 342 342 340 335 327 319 311 300 285 270 256 245 238 236 236 236 236 236 236 236 236 234 232 229 227 224
357 358 358 357 358 359 359 360 1 2 3 4 5 5 5 4 2 359 358 356 356 357 357 357 357 354 349 340 325 308 297 291 282 269 260 257 258 262 266 270 274 278 283 289 296 303 309 314 321 323 322 319 319 321 327 335 338 337 338 340 342 342 342 340 334 326 318 310 295 277 263 252 245 241 239 239 239 238 238 238 237 236 233 231 229 227
353 355 356 356 356 357 357 358 359 0 1 1 2 3 4 4 2 359 357 355 354 354 355 356 356 354 350 344 335 317 301 295 292 280 265 258 257 258 261 265 268 272 277 282 288 295 302 308 316 321 322 320 319 321 328 337 339 338 339 341 342 342 342 342 341 335 325 316 305 289 272 260 251 246 244 242 242 241 241 241 240 239 236 233 231 229
349 352 354 354 354 355 355 356 357 358 359 359 360 1 2 3 2 0 357 355 353 353 353 354 354 354 351 346 340 329 311 298 294 289 274 261 257 257 258 261 264 268 273 278 284 292 298 305 313 321 323 322 320 321 328 337 340 339 340 342 343 343 342 342 343 343 336 325 314 300 284 270 261 254 249 246 245 244 243 243 242 241 239 236 233 231
346 348 352 353 353 353 353 353 354 355 356 357 357 359 360 1 1 0 358 355 352 352 352 352 353 354 352 347 341 335 322 304 294 291 284 268 258 257 257 259 262 266 269 275 282 290 296 303 312 319 323 322 319 320 327 335 339 341 341 341 344 344 343 343 344 346 345 338 326 311 296 282 271 263 257 253 249 247 246 245 244 243 241 239 235 233
344 345 349 350 351 351 351 351 352 353 354 355 355 356 358 359 360 0 358 356 353 351 350 350 350 352 352 348 343 337 330 315 298 292 289 278 263 256 256 257 259 262 265 269 276 283 290 298 306 315 320 321 318 319 325 330 336 341 340 340 343 345 345 344 345 347 349 347 341 328 313 297 283 272 264 260 256 253 250 248 247 245 244 241 238 235
342 343 346 347 348 348 349 349 350 350 352 352 353 354 355 357 358 359 358 356 354 351 350 349 349 349 350 349 344 339 334 325 309 295 289 285 272 259 255 255 257 258 261 264 269 276 283 291 300 309 316 319 317 316 320 325 332 339 341 340 342 346 347 346 345 347 349 352 351 345 332 318 303 288 274 265 260 257 254 252 250 248 247 244 241 237
339 340 343 345 345 346 347 347 347 348 349 350 351 352 353 354 356 357 358 357 355 352 350 348 348 348 348 348 346 341 336 331 321 305 292 287 281 268 256 253 254 256 258 260 264 270 277 285 293 302 311 317 317 314 316 321 329 337 341 340 341 344 347 348 347 347 348 349 353 355 350 337 321 308 293 276 265 259 256 254 252 251 249 246 243 239
337 337 340 342 343 344 345 345 345 346 347 348 348 349 351 352 354 355 357 357 355 353 350 348 347 347 347 347 346 342 337 333 328 316 300 291 287 279 264 253 250 253 255 258 261 265 271 280 288 297 307 314 316 312 312 318 327 334 339 340 340 342 347 349 349 348 346 346 349 354 357 353 342 327 312 297 280 268 260 256 253 252 250 248 245 241
335 335 337 340 341 341 342 342 343 344 345 346 347 347 348 350 352 353 355 357 356 353 350 348 346 346 345 345 346 344 339 335 331 323 311 297 290 285 275 260 250 249 251 255 259 262 266 274 283 291 300 309 314 311 310 314 323 330 335 339 339 340 344 347 349 349 347 346 347 351 355 358 356 348 333 316 300 284 271 263 257 253 251 249 247 244
333 333 336 337 338 339 340 340 341 342 343 344 345 345 346 348 349 351 353 355 355 354 351 347 345 345 344 344 345 344 341 336 331 326 318 306 293 287 281 268 255 249 247 249 254 259 262 267 276 285 293 303 310 311 307 309 315 322 330 335 337 338 341 343 345 348 349 349 349 351 353 356 358 358 353 340 321 301 285 274 265 259 255 251 248 245
331 331 334 335 336 337 338 338 338 339 340 342 343 344 345 346 347 349 351 353 353 353 351 348 345 344 344 343 343 344 342 337 332 327 320 310 299 290 284 274 261 252 247 244 247 253 258 261 267 277 286 296 306 309 306 303 306 312 321 330 334 335 337 340 342 345 348 350 352 354 354 354 356 358 359 357 347 327 304 286 275 267 261 256 252 248
329 329 332 333 333 334 336 336 337 337 338 339 341 342 343 344 345 348 350 351 351 351 350 348 345 343 343 342 342 342 342 338 332 327 320 310 300 291 285 278 266 255 250 245 242 246 253 257 261 269 279 289 299 306 305 299 298 302 311 322 328 329 330 336 343 346 348 351 354 357 358 358 357 357 358 0 360 354 339 311 286 274 269 263 257 253
326 328 330 330 331 332 333 334 334 335 336 337 339 340 341 342 344 346 348 349 349 349 348 348 345 342 341 341 340 340 341 338 333 328 320 309 298 291 286 282 272 258 251 247 243 242 248 254 258 264 272 281 291 299 303 297 292 293 299 309 317 320 321 327 340 352 359 360 1 2 2 2 1 360 359 360 1 1 359 350 326 293 275 269 263 257
324 326 328 328 328 330 331 332 332 333 334 335 336 338 339 340 342 344 346 347 347 347 347 346 344 341 339 339 339 339 340 339 334 328 321 309 297 290 285 281 276 264 253 248 245 241 243 249 254 259 265 273 282 291 298 297 291 285 286 294 302 307 307 311 330 356 11 16 16 16 13 9 7 5 3 1 1 2 2 2 357 342 310 282 269 262
322 324 326 326 327 328 329 330 330 331 332 333 335 336 337 339 340 342 343 345 346 346 345 345 344 341 338 338 338 338 339 338 335 329 323 314 301 291 285 280 277 269 258 250 246 243 241 244 249 254 259 266 273 282 291 295 291 282 277 279 284 287 285 285 303 348 18 29 33 32 28 23 19 14 10 6 4 3 3 3 2 359 352 331 297 273
321 323 323 324 325 326 327 328 329 329 330 332 333 334 336 337 338 340 341 342 344 344 344 344 343 341 338 336 336 336 337 337 335 329 324 317 307 295 287 282 279 275 266 255 249 244 241 241 244 248 253 259 266 273 281 288 289 281 272 267 266 264 259 257 262 294 14 38 43 44 41 37 32 28 23 17 12 10 7 5 3 1 0 357 346 319
Height
10653 10653 10654 10654 10654 10655 10656 10658 10658 10658 10658 10659 10659 10660 10661 10660 10658 10657 10657 10655 10654 10653 10653 10652 10650 10647 10645 10644 10642 10642 10643 10645 10647 10647 10646 10644 10643 10641 10639 10638 10638 10638 10640 10641 10641 10640 10641 10641 10641 10640 10639 10640 10642 10641 10639 10639 10642 10645 10643 10639 10638 10638 10640 10644 10648 10650 10651 10654 10658 10662 10665 10667 10670 10674 10677 10681 10684 10688 10693 10697 10702 10707 10711 10714 10718 10721
10651 10651 10651 10651 10651 10652 10654 10655 10655 10654 10655 10656 10656 10657 10657 10656 10655 10654 10654 10653 10650 10650 10650 10650 10649 10645 10642 10641 10639 10637 10636 10638 10641 10641 10640 10639 10638 10637 10637 10636 10635 10634 10636 10637 10636 10636 10636 10637 10637 10635 10634 10635 10638 10637 10634 10634 10637 10639 10637 10633 10631 10631 10632 10635 10639 10642 10642 10645 10649 10652 10655 10658 10662 10665 10668 10671 10675 10679 10684 10688 10693 10698 10703 10707 10711 10714
10648 10648 10648 10648 10649 10650 10651 10651 10651 10651 10651 10652 10652 10652 10653 10653 10652 10651 10652 10650 10647 10646 10647 10647 10646 10643 10639 10638 10635 10633 10631 10632 10635 10636 10635 10635 10635 10635 10634 10633 10631 10632 10633 10633 10633 10632 10632 10633 10632 10631 10630 10631 10634 10633 10630 10630 10632 10633 10632 10627 10624 10624 10626 10627 10630 10633 10634 10635 10639 10642 10645 10648 10652 10656 10659 10662 10666 10670 10675 10679 10684 10690 10695 10699 10703 10707
10645 10645 10645 10645 10646 10647 10648 10648 10647 10647 10648 10650 10649 10648 10649 10649 10648 10649 10649 10647 10645 10644 10643 10643 10642 10640 10637 10634 10632 10630 10628 10628 10629 10630 10631 10631 10632 10632 10632 10630 10629 10629 10630 10630 10629 10627 10627 10628 10628 10627 10626 10627 10629 10628 10625 10625 10627 10627 10625 10621 10618 10618 10619 10620 10621 10624 10626 10627 10630 10632 10635 10639 10643 10647 10651 10654 10658 10662 10666 10670 10675 10681 10686 10691 10696 10700
10642 10642 10642 10642 10643 10644 10644 10643 10643 10644 10646 10647 10645 10643 10644 10645 10645 10646 10645 10644 10643 10643 10642 10640 10639 10638 10634 10632 10630 10628 10627 10625 10625 10626 10627 10628 10629 10630 10629 10628 10627 10627 10627 10626 10625 10623 10623 10624 10624 10623 10621 10622 10623 10621 10620 10620 10620 10620 10618 10614 10611 10611 10612 10613 10613 10615 10617 10619 10621 10623 10627 10630 10634 10638 10642 10646 10650 10654 10658 10662 10667 10672 10678 10683 10688 10693
10639 10638 10638 10639 10639 10639 10640 10639 10639 10641 10642 10641 10640 10639 10641 10642 10642 10642 10641 10641 10641 10641 10640 10639 10637 10636 10633 10631 10629 10627 10625 10624 10623 10624 10624 10625 10626 10626 10626 10625 10625 10624 10624 10623 10621 10619 10619 10620 10620 10618 10617 10617 10616 10614 10614 10614 10613 10613 10611 10607 10605 10604 10605 10605 10605 10607 10608 10610 10612 10614 10617 10621 10624 10629 10634 10638 10642 10646 10650 10654 10659 10664 10670 10676 10681 10686
10636 10635 10635 10635 10635 10635 10636 10635 10635 10637 10637 10636 10636 10637 10638 10638 10637 10637 10637 10637 10637 10637 10638 10636 10635 10634 10632 10630 10628 10626 10624 10623 10623 10623 10623 10623 10623 10623 10623 10623 10622 10621 10621 10620 10617 10615 10616 10616 10614 10612 10612 10612 10610 10608 10607 10608 10607 10605 10603 10601 10599 10598 10597 10597 10598 10599 10600 10601 10603 10606 10608 10611 10615 10619 10624 10629 10634 10638 10642 10647 10652 10657 10663 10669 10674 10679
10634 10633 10633 10632 10632 10632 10632 10632 10632 10633 10633 10631 10631 10634 10634 10633 10634 10634 10634 10634 10633 10634 10635 10633 10632 10632 10631 10629 10627 10625 10623 10622 10622 10622 10621 10621 10621 10621 10620 10619 10618 10618 10617 10616 10613 10612 10613 10612 10609 10608 10607 10606 10604 10602 10602 10601 10600 10598 10596 10594 10592 10591 10591 10591 10591 10591 10592 10594 10595 10597 10600 10603 10606 10610 10615 10620 10626 10631 10635 10640 10645 10650 10656 10662 10667 10673
10633 10632 10631 10630 10629 10630 10630 10629 10629 10629 10629 10627 10628 10630 10630 10629 10630 10629 10629 10630 10630 10631 10632 10631 10630 10631 10630 10627 10625 10623 10621 10620 10620 10620 10619 10618 10618 10618 10617 10616 10615 10614 10614 10612 10611 10611 10611 10608 10606 10605 10603 10601 10599 10598 10596 10594 10593 10591 10589 10588 10586 10585 10585 10584 10584 10584 10585 10587 10587 10589 10592 10596 10599 10602 10607 10612 10618 10623 10628 10633 10638 10643 10649 10655 10661 10666
10632 10630 10629 10628 10627 10627 10627 10626 10625 10625 10625 10625 10625 10625 10625 10625 10625 10625 10625 10626 10627 10627 10628 10628 10629 10629 10627 10625 10624 10622 10620 10619 10618 10617 10617 10616 10615 10615 10614 10613 10612 10611 10611 10610 10609 10609 10608 10606 10604 10602 10600 10598 10595 10594 10591 10589 10586 10584 10583 10582 10580 10579 10579 10579 10578 10578 10579 10580 10581 10583 10585 10588 10592 10595 10599 10603 10609 10616 10621 10627 10632 10636 10641 10648 10654 10659
10633 10630 10628 10626 10625 10624 10623 10623 10622 10621 10621 10621 10621 10621 10620 10620 10620 10621 10621 10623 10624 10623 10624 10625 10627 10627 10625 10623 10621 10620 10619 10617 10617 10615 10614 10613 10612 10611 10611 10610 10609 10608 10607 10607 10607 10606 10605 10603 10601 10600 10597 10594 10592 10590 10587 10584 10581 10579 10578 10576 10575 10574 10574 10574 10573 10573 10574 10575 10576 10577 10579 10582 10585 10588 10592 10596 10602 10609 10615 10620 10625 10629 10634 10641 10647 10653
10633 10630 10628 10625 10623 10621 10620 10619 10618 10617 10617 10617 10617 10616 10616 10615 10616 10617 10618 10619 10619 10619 10620 10622 10624 10624 10623 10621 10619 10617 10616 10615 10614 10612 10611 10610 10609 10608 10608 10607 10606 10605 10604 10604 10604 10604 10602 10600 10599 10596 10594 10591 10589 10586 10583 10580 10577 10574 10573 10571 10569 10569 10569 10569 10569 10569 10569 10570 10571 10572 10573 10575 10578 10581 10585 10589 10595 10602 10608 10613 10617 10622 10628 10635 10641 10646
10634 10631 10628 10625 10622 10620 10618 10617 10615 10613 10613 10613 10612 10612 10611 10611 10611 10613 10613 10614 10615 10615 10617 10619 10620 10620 10620 10619 10617 10615 10614 10613 10612 10610 10609 10607 10606 10606 10605 10605 10603 10602 10601 10601 10601 10600 10599 10597 10595 10593 10591 10588 10586 10583 10580 10577 10574 10571 10569 10567 10566 10565 10565 10565 10565 10565 10565 10565 10566 10567 10568 10570 10572 10575 10578 10583 10589 10595 10600 10605 10610 10615 10621 10628 10634 10640
10635 10631 10628 10625 10622 10618 10616 10614 10612 10610 10609 10608 10608 10606 10606 10606 10607 10608 10607 10608 10610 10611 10613 10616 10617 10617 10616 10615 10614 10613 10613 10612 10611 10609 10607 10605 10604 10603 10602 10601 10600 10599 10598 10598 10597 10597 10595 10593 10592 10589 10587 10585 10583 10581 10578 10575 10572 10569 10567 10565 10563 10563 10562 10562 10562 10561 10561 10562 10562 10563 10564 10565 10566 10569 10572 10577 10583 10588 10593 10598 10604 10609 10615 10621 10627 10633
10637 10633 10629 10625 10622 10618 10615 10612 10610 10608 10606 10604 10603 10602 10601 10601 10602 10602 10602 10603 10605 10607 10610 10612 10613 10614 10613 10612 10610 10610 10610 10610 10608 10606 10605 10603 10601 10600 10599 10598 10597 10595 10595 10594 10594 10593 10592 10590 10588 10586 10584 10582 10580 10578 10576 10573 10570 10567 10564 10562 10561 10560 10560 10559 10558 10558 10558 10558 10559 10559 10560 10561 10562 10564 10567 10572 10577 10582 10586 10591 10597 10603 10609 10614 10621 10627
10638 10634 10631 10627 10622 10619 10615 10611 10608 10606 10603 10601 10599 10598 10597 10596 10597 10597 10597 10598 10600 10603 10606 10608 10610 10611 10610 10609 10608 10608 10608 10607 10606 10604 10603 10601 10599 10596 10595 10595 10594 10592 10591 10590 10590 10589 10588 10587 10585 10584 10582 10580 10577 10575 10573 10570 10568 10565 10563 10561 10560 10558 10558 10557 10556 10555 10555 10555 10555 10555 10556 10557 10558 10560 10563 10566 10571 10576 10579 10585 10591 10597 10602 10608 10614 10621
10639 10635 10632 10628 10624 10620 10616 10611 10608 10605 10602 10600 10597 10595 10594 10592 10592 10592 10592 10593 10595 10598 10601 10604 10606 10607 10606 10606 10606 10606 10606 10605 10603 10603 10602 10599 10596 10593 10592 10592 10591 10589 10587 10587 10586 10586 10585 10583 10582 10581 10579 10577 10574 10572 10570 10568 10565 10563 10562 10560 10558 10556 10555 10554 10553 10552 10552 10552 10552 10552 10552 10553 10554 10556 10558 10561 10565 10570 10573 10578 10584 10590 10596 10602 10608 10614
10640 10636 10632 10629 10625 10621 10617 10613 10608 10605 10601 10598 10596 10594 10592 10590 10589 10588 10588 10588 10589 10592 10596 10599 10602 10603 10603 10603 10603 10604 10604 10602 10601 10601 10600 10598 10594 10591 10590 10590 10589 10587 10585 10584 10583 10583 10582 10581 10579 10577 10576 10573 10571 10569 10567 10565 10563 10561 10560 10558 10555 10554 10552 10552 10551 10550 10549 10549 10549 10549 10549 10549 10550 10552 10554 10556 10560 10564 10568 10572 10577 10584 10590 10595 10601 10607
10641 10637 10633 10629 10625 10621 10617 10613 10609 10605 10601 10598 10595 10592 10590 10588 10586 10585 10585 10584 10584 10587 10591 10595 10597 10598 10599 10600 10600 10601 10601 10600 10598 10597 10597 10595 10592 10590 10588 10588 10586 10584 10582 10581 10580 10580 10579 10578 10576 10574 10573 10571 10568 10566 10564 10562 10560 10558 10557 10555 10553 10551 10550 10549 10548 10547 10547 10546 10546 10545 10546 10546 10546 10547 10549 10552 10555 10559 10562 10566 10571 10577 10583 10589 10594 10600
10643 10639 10635 10630 10626 10622 10618 10614 10610 10606 10602 10599 10595 10592 10588 10586 10584 10583 10582 10581 10581 10583 10586 10590 10592 10594 10595 10596 10597 10597 10597 10596 10595 10594 10593 10592 10590 10587 10586 10585 10583 10582 10579 10578 10577 10576 10576 10575 10573 10572 10570 10568 10566 10564 10561 10559 10557 10555 10554 10552 10550 10548 10547 10546 10545 10544 10544 10543 10543 10542 10542 10542 10543 10543 10545 10547 10549 10553 10557 10561 10565 10570 10576 10582 10587 10593
10643 10639 10636 10631 10627 10623 10619 10615 10612 10607 10603 10600 10596 10592 10588 10585 10583 10581 10580 10579 10579 10579 10581 10584 10587 10589 10590 10591 10593 10593 10593 10592 10592 10591 10590 10589 10587 10585 10583 10581 10580 10578 10577 10575 10574 10573 10573 10572 10571 10570 10568 10566 10563 10561 10559 10556 10555 10553 10551 10548 10546 10544 10542 10541 10541 10541 10540 10539 10539 10539 10539 10539 10539 10539 10541 10542 10544 10547 10551 10555 10559 10564 10569 10575 10580 10586
10643 10639 10636 10632 10628 10624 10620 10616 10612 10609 10604 10600 10596 10592 10588 10585 10582 10580 10579 10578 10577 10577 10577 10579 10582 10584 10586 10587 10588 10589 10590 10589 10588 10588 10587 10586 10585 10582 10580 10578 10577 10576 10574 10573 10571 10570 10570 10569 10568 10567 10565 10563 10560 10558 10555 10553 10552 10550 10548 10545 10543 10541 10538 10537 10536 10536 10535 10535 10535 10535 10535 10534 10535 10536 10536 10537 10539 10542 10546 10550 10554 10558 10563 10568 10574 10579
10644 10640 10636 10633 10629 10625 10621 10617 10613 10610 10606 10602 10597 10592 10588 10585 10582 10580 10578 10577 10576 10575 10575 10576 10577 10578 10580 10582 10584 10585 10586 10585 10585 10585 10584 10584 10583 10581 10578 10576 10574 10573 10572 10570 10569 10568 10567 10565 10564 10562 10561 10559 10557 10554 10551 10549 10548 10546 10544 10542 10539 10537 10535 10532 10531 10531 10530 10529 10529 10530 10530 10530 10530 10531 10532 10532 10534 10537 10540 10544 10548 10552 10557 10562 10568 10573
10645 10641 10637 10633 10630 10626 10622 10618 10614 10610 10606 10603 10599 10594 10590 10586 10582 10580 10577 10575 10574 10573 10573 10573 10573 10573 10574 10577 10579 10581 10581 10580 10580 10581 10581 10580 10579 10578 10576 10574 10572 10571 10569 10568 10567 10565 10564 10562 10560 10558 10556 10554 10553 10551 10548 10545 10543 10542 10540 10537 10535 10533 10531 10528 10526 10525 10524 10523 10523 10523 10524 10524 10525 10526 10527 10527 10529 10531 10534 10538 10542 10546 10551 10556 10562 10567
10646 10642 10638 10634 10631 10627 10623 10619 10615 10611 10607 10603 10599 10596 10592 10587 10583 10579 10577 10575 10573 10572 10571 10571 10570 10570 10570 10573 10575 10576 10575 10574 10575 10577 10578 10576 10575 10574 10573 10571 10570 10568 10566 10565 10564 10562 10560 10558 10557 10555 10552 10551 10549 10547 10544 10541 10539 10537 10535 10532 10530 10527 10525 10523 10521 10519 10517 10517 10517 10517 10518 10519 10520 10521 10521 10522 10524 10526 10529 10532 10536 10540 10545 10550 10555 10561
10648 10644 10640 10636 10632 10628 10624 10620 10616 10612 10609 10604 10600 10596 10592 10588 10584 10579 10576 10574 10572 10570 10569 10568 10567 10567 10567 10568 10571 10571 10571 10570 10571 10573 10574 10573 10572 10571 10569 10568 10567 10565 10563 10562 10560 10559 10557 10555 10553 10551 10549 10546 10545 10543 10540 10537 10534 10532 10530 10527 10525 10522 10519 10517 10515 10512 10510 10510 10510 10510 10511 10512 10514 10515 10516 10517 10519 10521 10524 10527 10531 10535 10539 10543 10548 10553
10649 10645 10641 10638 10634 10630 10626 10622 10617 10613 10609 10605 10601 10597 10592 10588 10584 10580 10576 10573 10571 10569 10567 10566 10565 10565 10565 10565 10566 10567 10567 10567 10568 10568 10569 10569 10569 10568 10567 10565 10564 10562 10560 10559 10557 10555 10553 10551 10549 10547 10545 10542 10540 10538 10536 10533 10530 10527 10525 10522 10519 10516 10513 10511 10508 10506 10504 10503 10503 10504 10505 10506 10508 10509 10510 10512 10514 10516 10518 10522 10526 10529 10533 10537 10541 10546
10650 10646 10643 10639 10636 10631 10627 10622 10618 10613 10609 10605 10602 10598 10594 10589 10585 10581 10577 10573 10570 10568 10566 10564 10563 10563 10562 10562 10562 10563 10564 10565 10565 10564 10564 10565 10565 10564 10564 10563 10562 10560 10558 10556 10554 10552 10550 10548 10546 10543 10541 10539 10537 10534 10531 10529 10526 10523 10520 10517 10514 10511 10508 10505 10502 10500 10498 10497 10497 10497 10498 10500 10502 10503 10505 10507 10509 10511 10513 10516 10520 10523 10527 10531 10535 10540
10649 10646 10643 10639 10636 10632 10628 10623 10619 10614 10609 10605 10601 10598 10594 10590 10586 10582 10578 10573 10570 10567 10565 10563 10561 10560 10560 10559 10559 10560 10560 10561 10561 10561 10561 10560 10560 10560 10560 10560 10559 10557 10556 10554 10552 10549 10547 10545 10543 10541 10538 10536 10534 10531 10528 10525 10522 10518 10515 10512 10509 10506 10503 10499 10497 10494 10492 10491 10491 10492 10493 10494 10496 10497 10500 10502 10503 10506 10508 10511 10514 10518 10521 10525 10529 10534
10649 10645 10642 10638 10635 10631 10628 10624 10620 10616 10611 10606 10602 10598 10594 10591 10587 10583 10578 10574 10570 10566 10564 10562 10560 10558 10557 10557 10556 10556 10557 10557 10557 10558 10557 10557 10557 10557 10556 10556 10556 10554 10553 10551 10549 10547 10544 10542 10540 10538 10535 10533 10531 10528 10525 10522 10518 10515 10511 10508 10505 10501 10498 10495 10492 10490 10488 10487 10486 10487 10487 10489 10490 10492 10495 10497 10499 10501 10504 10506 10509 10513 10516 10520 10523 10528
10648 10644 10641 10638 10635 10631 10627 10624 10620 10616 10612 10607 10602 10598 10593 10589 10586 10582 10578 10574 10570 10567 10563 10561 10558 10556 10554 10553 10553 10553 10553 10553 10553 10553 10553 10553 10554 10554 10553 10553 10553 10552 10551 10549 10547 10545 10542 10540 10538 10535 10533 10530 10528 10525 10522 10519 10515 10511 10508 10505 10501 10497 10494 10491 10488 10486 10484 10483 10483 10483 10483 10484 10486 10488 10490 10492 10495 10497 10499 10502 10505 10507 10511 10514 10518 10522
10648 10644 10641 10638 10635 10631 10627 10623 10618 10614 10610 10606 10601 10596 10592 10588 10584 10581 10578 10574 10570 10566 10563 10559 10557 10554 10552 10551 10550 10549 10549 10549 10549 10549 10549 10549 10550 10550 10550 10550 10550 10550 10549 10547 10545 10543 10540 10538 10535 10532 10530 10527 10525 10522 10520 10516 10512 10508 10505 10501 10498 10494 10491 10488 10485 10483 10482 10480 10480 10479 10480 10481 10482 10484 10486 10489 10491 10493 10496 10498 10500 10503 10506 10509 10513 10517
10648 10645 10641 10638 10635 10631 10627 10623 10618 10613 10608 10604 10600 10596 10592 10588 10584 10580 10577 10573 10570 10565 10562 10558 10555 10552 10550 10548 10547 10546 10545 10545 10545 10545 10545 10545 10546 10546 10546 10547 10547 10547 10546 10545 10544 10541 10538 10536 10533 10530 10527 10525 10523 10520 10518 10514 10510 10506 10502 10499 10496 10492 10488 10485 10483 10481 10479 10478 10477 10477 10477 10478 10480 10481 10483 10486 10488 10490 10492 10494 10496 10498 10501 10504 10508 10512
10649 10645 10641 10638 10635 10632 10628 10624 10619 10614 10609 10605 10600 10596 10591 10587 10584 10580 10575 10572 10569 10565 10561 10557 10554 10550 10547 10545 10544 10542 10541 10540 10540 10540 10542 10542 10541 10540 10541 10542 10542 10542 10543 10542 10541 10539 10537 10534 10531 10528 10526 10523 10521 10519 10516 10512 10508 10504 10500 10497 10494 10490 10487 10484 10481 10480 10478 10477 10476 10476 10476 10476 10478 10479 10481 10483 10485 10487 10489 10490 10492 10494 10496 10499 10502 10506
10648 10645 10642 10639 10636 10633 10629 10624 10620 10615 10610 10606 10601 10596 10591 10586 10583 10579 10575 10571 10568 10565 10561 10556 10553 10549 10545 10542 10540 10538 10537 10536 10535 10536 10538 10538 10536 10536 10537 10537 10537 10537 10538 10537 10537 10536 10534 10532 10530 10527 10524 10522 10520 10517 10514 10511 10507 10503 10499 10495 10492 10489 10487 10483 10480 10478 10477 10476 10475 10475 10475 10475 10476 10477 10478 10480 10482 10483 10485 10487 10488 10490 10492 10494 10497 10501
10648 10647 10645 10641 10637 10634 10629 10624 10620 10615 10611 10606 10602 10598 10593 10587 10581 10578 10574 10570 10566 10562 10559 10555 10551 10548 10544 10541 10538 10535 10533 10532 10531 10532 10533 10533 10532 10533 10533 10533 10533 10533 10534 10534 10533 10533 10532 10530 10528 10525 10522 10520 10517 10515 10512 10509 10505 10501 10498 10494 10491 10489 10486 10483 10480 10478 10476 10475 10474 10474 10473 10474 10474 10475 10476 10477 10479 10480 10481 10483 10485 10486 10488 10490 10493 10496
10647 10647 10645 10641 10636 10632 10628 10624 10619 10615 10610 10606 10602 10598 10593 10588 10583 10577 10573 10570 10565 10561 10557 10553 10549 10545 10542 10538 10536 10533 10530 10528 10527 10527 10528 10528 10528 10529 10529 10530 10530 10530 10530 10530 10530 10530 10529 10528 10526 10523 10520 10518 10515 10513 10510 10507 10504 10500 10497 10494 10491 10488 10485 10482 10480 10477 10475 10474 10473 10473 10472 10472 10472 10473 10474 10475 10476 10477 10478 10480 10481 10483 10484 10486 10488 10491
10646 10645 10643 10639 10634 10630 10626 10622 10618 10614 10610 10605 10601 10597 10592 10588 10584 10578 10573 10569 10565 10560 10556 10551 10547 10543 10539 10535 10533 10531 10528 10525 10524 10523 10523 10524 10524 10524 10525 10526 10526 10526 10527 10526 10526 10526 10525 10525 10523 10521 10518 10515 10513 10511 10508 10505 10503 10499 10496 10493 10491 10488 10485 10482 10479 10477 10475 10473 10472 10472 10471 10471 10471 10471 10472 10472 10473 10474 10475 10476 10478 10479 10480 10482 10483 10486
10643 10641 10640 10637 10632 10628 10624 10621 10617 10614 10610 10605 10600 10596 10591 10587 10583 10578 10572 10567 10562 10558 10554 10549 10545 10542 10537 10533 10530 10528 10526 10523 10520 10519 10519 10519 10519 10519 10520 10521 10522 10523 10523 10523 10523 10522 10521 10521 10520 10518 10515 10513 10511 10509 10506 10504 10502 10499 10496 10493 10491 10488 10485 10483 10480 10477 10475 10473 10472 10471 10470 10470 10469 10469 10469 10470 10470 10471 10472 10473 10474 10475 10476 10477 10479 10482
10639 10636 10634 10633 10630 10626 10623 10619 10615 10612 10609 10605 10600 10595 10591 10586 10582 10577 10572 10567 10561 10556 10552 10547 10543 10540 10536 10532 10527 10525 10523 10521 10518 10516 10516 10516 10515 10515 10516 10517 10518 10519 10520 10520 10520 10519 10518 10518 10517 10515 10513 10511 10509 10507 10505 10503 10501 10498 10495 10493 10490 10488 10485 10483 10480 10478 10475 10473 10471 10470 10469 10468 10468 10467 10467 10467 10468 10468 10469 10470 10471 10471 10472 10474 10476 10478
10637 10634 10632 10630 10627 10624 10621 10617 10612 10609 10606 10602 10598 10594 10590 10585 10581 10577 10571 10566 10561 10556 10551 10546 10541 10537 10533 10530 10525 10522 10520 10518 10516 10514 10512 10512 10512 10511 10511 10512 10513 10515 10516 10517 10517 10517 10516 10515 10514 10513 10511 10509 10507 10505 10503 10502 10500 10497 10495 10492 10489 10487 10485 10482 10480 10477 10475 10473 10471 10469 10468 10467 10466 10466 10466 10465 10465 10465 10466 10466 10467 10468 10469 10470 10472 10474
10634 10631 10630 10628 10625 10622 10619 10615 10611 10607 10603 10599 10595 10591 10588 10583 10579 10574 10569 10563 10558 10553 10549 10545 10540 10535 10531 10527 10523 10520 10517 10515 10514 10512 10510 10509 10508 10508 10508 10508 10509 10510 10512 10513 10513 10513 10513 10512 10512 10511 10509 10507 10505 10503 10502 10500 10498 10496 10494 10491 10489 10486 10484 10482 10479 10477 10475 10473 10471 10469 10468 10466 10465 10464 10464 10464 10463 10463 10463 10463 10464 10465 10466 10467 10468 10470
10632 10628 10626 10624 10621 10619 10616 10613 10610 10606 10602 10597 10592 10588 10585 10581 10576 10572 10568 10562 10556 10550 10546 10542 10538 10534 10530 10526 10521 10517 10514 10512 10511 10509 10507 10505 10505 10505 10504 10505 10505 10506 10507 10508 10509 10510 10510 10509 10509 10508 10507 10505 10503 10502 10500 10498 10497 10495 10493 10490 10488 10486 10484 10482 10479 10477 10475 10473 10471 10469 10467 10466 10465 10463 10463 10462 10462 10461 10461 10461 10462 10462 10463 10463 10464 10466
10629 10625 10623 10620 10617 10614 10611 10608 10605 10602 10599 10595 10590 10585 10581 10578 10574 10569 10565 10561 10555 10549 10544 10540 10536 10532 10527 10523 10520 10515 10511 10509 10507 10506 10504 10503 10502 10501 10501 10501 10501 10502 10503 10505 10505 10505 10506 10506 10506 10505 10504 10503 10501 10500 10498 10496 10495 10494 10492 10489 10487 10485 10483 10482 10480 10478 10476 10473 10471 10469 10467 10466 10464 10463 10462 10461 10460 10460 10460 10460 10460 10460 10460 10460 10462 10463
10627 10622 10620 10618 10614 10610 10607 10603 10600 10598 10596 10593 10588 10583 10578 10574 10570 10566 10562 10558 10554 10549 10543 10538 10534 10530 10525 10520 10517 10513 10509 10506 10504 10502 10501 10500 10499 10498 10498 10498 10498 10498 10499 10501 10501 10501 10502 10503 10503 10502 10502 10501 10499 10497 10496 10495 10493 10492 10491 10489 10487 10484 10483 10481 10480 10478 10476 10474 10472 10469 10467 10466 10464 10463 10462 10461 10460 10459 10459 10459 10459 10458 10458 10458 10459 10461
10624 10620 10617 10615 10611 10608 10605 10600 10596 10592 10590 10589 10585 10580 10574 10569 10566 10562 10557 10552 10550 10546 10541 10536 10531 10527 10523 10518 10513 10510 10506 10503 10500 10499 10498 10496 10495 10494 10494 10494 10494 10494 10495 10497 10498 10498 10498 10500 10500 10500 10499 10498 10497 10495 10494 10493 10492 10491 10489 10488 10486 10484 10482 10481 10480 10478 10476 10475 10473 10471 10469 10467 10465 10463 10462 10461 10460 10459 10458 10458 10458 10457 10457 10457 10458 10458
10621 10617 10615 10612 10608 10605 10602 10599 10594 10589 10585 10584 10582 10579 10574 10569 10564 10559 10553 10548 10543 10540 10537 10532 10527 10523 10519 10515 10511 10507 10504 10500 10497 10496 10494 10493 10491 10490 10490 10490 10490 10491 10491 10493 10494 10494 10494 10495 10497 10497 10496 10496 10494 10493 10492 10491 10490 10489 10488 10487 10485 10483 10482 10480 10479 10478 10476 10475 10473 10471 10470 10468 10466 10464 10462 10461 10460 10459 10458 10457 10457 10457 10456 10456 10457 10457
10616 10614 10612 10608 10604 10601 10599 10596 10592 10588 10584 10581 10578 10575 10572 10567 10562 10557 10552 10547 10541 10537 10533 10529 10524 10519 10516 10512 10508 10504 10501 10498 10495 10493 10491 10490 10488 10486 10486 10486 10486 10486 10487 10488 10490 10491 10490 10491 10492 10493 10493 10493 10492 10491 10490 10489 10488 10487 10486 10485 10484 10483 10481 10480 10478 10477 10476 10475 10473 10472 10470 10469 10467 10465 10464 10462 10460 10459 10458 10457 10457 10456 10456 10456 10456 10456
10611 10609 10608 10604 10599 10595 10593 10591 10588 10585 10581 10577 10574 10571 10568 10564 10560 10556 10552 10547 10542 10537 10531 10526 10522 10517 10512 10509 10506 10502 10498 10495 10492 10489 10488 10487 10485 10484 10482 10482 10482 10483 10482 10483 10485 10487 10487 10487 10488 10489 10489 10490 10489 10489 10488 10487 10486 10485 10484 10484 10483 10482 10480 10479 10478 10477 10475 10474 10473 10472 10471 10469 10468 10467 10465 10463 10462 10460 10459 10458 10457 10456 10456 10456 10456 10456
10607 10605 10603 10600 10596 10591 10587 10584 10581 10578 10575 10572 10569 10566 10563 10559 10556 10553 10549 10546 10541 10536 10530 10525 10519 10514 10509 10505 10502 10499 10496 10492 10489 10486 10484 10483 10482 10481 10479 10478 10478 10479 10479 10478 10479 10482 10484 10484 10484 10485 10486 10486 10486 10486 10485 10485 10484 10483 10482 10482 10481 10480 10479 10478 10477 10476 10475 10474 10473 10472 10471 10470 10469 10467 10466 10465 10463 10462 10460 10459 10458 10457 10457 10456 10456 10456
10602 10600 10598 10595 10592 10588 10583 10579 10575 10571 10569 10566 10563 10559 10556 10553 10549 10546 10543 10540 10537 10533 10528 10523 10517 10512 10507 10502 10498 10495 10492 10489 10486 10483 10481 10479 10478 10477 10476 10475 10474 10475 10475 10475 10475 10476 10479 10480 10480 10481 10482 10482 10483 10483 10483 10482 10481 10481 10480 10479 10479 10478 10478 10477 10476 10475 10474 10473 10472 10471 10470 10470 10469 10468 10467 10466 10464 10463 10462 10461 10460 10459 10458 10457 10456 10456